Find Starlink 4198

NORAD ID: 52858 Int'l Des: 2022-062 Owner: SPXS Country: US Constellation: starlink operational
LEOCIRCULAR

实时位置

正在加载3D地球...

关于 Starlink 4198

正在加载描述...

即将过境

Passes for default location (London). Set your location on the main map for personalized predictions.

高度历史

Loading altitude history...

两行轨道根数

1 52858U 22062AE 26106.78019330 -.00001236 00000-0 -59551-4 0 9999
2 52858 53.2163 213.1520 0001198 89.8535 270.2595 15.08842074211677
Epoch: Apr 16, 2026 • Age: 18 hours

当前状态

高度 541.1 km
速度 7.60 km/s
星下点 30.73°N, 155.36°W
发射日期 Jun 17, 2022
运行时间 3.8 years
类型 internet

技术详情

分类 Payload
质量 297.00 kg
干质量 275.00 kg
总质量 297.00 kg
长度 0.20 m
直径 2.80 m
跨度 9.00 m
形状 Box + pan
制造商 SPXS
平台类型 Starlink
阶段状态 In Orbit
所有者/国家 SPXS/US

Most Searched